H1 CPF 2 NER 2020 11 20 9 325 01 glonass137 H2 1705501 9137 42939 2020 11 20 0 0 0 2020 11 23 23 45 0 900 1 1 0 0 0 1 H9 10 0 59173 0.00000 0 -15195916.017 -13986797.714 14993460.244 10 0 59173 900.00000 0 -13364755.869 -13209673.279 17270631.475 10 0 59173 1800.00000 0 -11233447.459 -12493328.617 19212910.665 10 0 59173 2700.00000 0 -8845334.423 -11885220.853 20782675.149 10 0 59173 3600.00000 0 -6253339.190 -11424832.805 21949516.558 10 0 59173 4500.00000 0 -3518005.595 -11141947.060 22690823.804 10 0 59173 5400.00000 0 -705229.399 -11055344.150 22992216.990 10 0 59173 6300.00000 0 2116230.580 -11171979.201 22847824.426 10 0 59173 7200.00000 0 4877358.774 -11486671.441 22260397.701 10 0 59173 8100.00000 0 7511500.050 -11982319.720 21241262.567 10 0 59173 9000.00000 0 9956880.666 -12630635.455 19810106.208 10 0 59173 9900.00000 0 12158929.489 -13393362.896 17994604.325 10 0 59173 10800.00000 0 14072304.187 -14223936.326 15829894.368 10 0 59173 11700.00000 0 15662538.847 -15069505.392 13357903.982 10 0 59173 12600.00000 0 16907244.921 -15873244.223 10626546.750 10 0 59173 13500.00000 0 17796815.701 -16576847.640 7688799.796 10 0 59173 14400.00000 0 18334605.009 -17123109.452 4601680.384 10 0 59173 15300.00000 0 18536572.779 -17458474.051 1425141.035 10 0 59173 16200.00000 0 18430412.516 -17535453.037 -1779095.528 10 0 59173 17100.00000 0 18054197.583 -17314803.951 -4948738.802 10 0 59173 18000.00000 0 17454603.631 -16767377.976 -8022146.314 10 0 59173 18900.00000 0 16684782.605 -15875557.118 -10939528.540 10 0 59173 19800.00000 0 15801978.655 -14634218.712 -13644118.757 10 0 59173 20700.00000 0 14864987.286 -13051185.059 -16083284.150 10 0 59173 21600.00000 0 13931565.781 -11147137.817 -18209555.965 10 0 59173 22500.00000 0 13055904.906 -8954999.345 -19981558.077 10 0 59173 23400.00000 0 12286269.232 -6518805.894 -21364815.553 10 0 59173 24300.00000 0 11662906.047 -3892118.870 -22332427.353 10 0 59173 25200.00000 0 11216311.327 -1136039.820 -22865590.139 10 0 59173 26100.00000 0 10965925.921 1683088.518 -22953963.106 10 0 59173 27000.00000 0 10919316.776 4496199.718 -22595867.057 10 0 59173 27900.00000 0 11071877.428 7234135.343 -21798314.050 10 0 59173 28800.00000 0 11407059.989 9830281.541 -20576867.323 10 0 59173 29700.00000 0 11897128.366 12223101.315 -18955334.413 10 0 59173 30600.00000 0 12504400.462 14358457.662 -16965299.589 10 0 59173 31500.00000 0 13182926.423 16191631.405 -14645504.866 10 0 59173 32400.00000 0 13880531.596 17688950.549 -12041091.784 10 0 59173 33300.00000 0 14541137.467 18828964.214 -9202718.863 10 0 59173 34200.00000 0 15107262.085 19603113.298 -6185572.228 10 0 59173 35100.00000 0 15522593.929 20015871.262 -3048288.945 10 0 59173 36000.00000 0 15734530.120 20084350.669 148185.629 10 0 59173 36900.00000 0 15696571.450 19837393.513 3341783.803 10 0 59173 37800.00000 0 15370472.851 19314185.110 6470521.406 10 0 59173 38700.00000 0 14728058.368 18562451.153 9473699.897 10 0 59173 39600.00000 0 13752623.939 17636314.867 12293081.196 10 0 59173 40500.00000 0 12439868.727 16593905.244 14874012.562 10 0 59173 41400.00000 0 10798315.523 15494817.339 17166480.096 10 0 59173 42300.00000 0 8849202.212 14397531.534 19126070.901 10 0 59173 43200.00000 0 6625848.188 13356899.907 20714826.082 10 0 59173 44100.00000 0 4172521.341 12421804.735 21901968.935 10 0 59173 45000.00000 0 1542851.862 11633086.656 22664495.061 10 0 59173 45900.00000 0 -1202142.399 11021828.613 22987613.820 10 0 59173 46800.00000 0 -3996338.420 10608066.760 22865033.203 10 0 59173 47700.00000 0 -6771005.007 10399981.797 22299082.879 10 0 59173 48600.00000 0 -9457412.282 10393604.288 21300673.110 10 0 59173 49500.00000 0 -11989446.895 10573046.227 19889089.899 10 0 59173 50400.00000 0 -14306125.633 10911249.383 18091629.752 10 0 59173 51300.00000 0 -16353904.143 11371219.378 15943080.171 10 0 59173 52200.00000 0 -18088685.547 11907694.211 13485054.894 10 0 59173 53100.00000 0 -19477445.799 12469177.604 10765195.747 10 0 59173 54000.00000 0 -20499408.255 13000251.996 7836255.622 10 0 59173 54900.00000 0 -21146718.455 13444073.894 4755079.574 10 0 59173 55800.00000 0 -21424590.662 13744946.133 1581503.412 10 0 59173 56700.00000 0 -21350920.071 13850857.965 -1622808.992 10 0 59173 57600.00000 0 -20955377.012 13715885.010 -4795566.826 10 0 59173 58500.00000 0 -20278021.241 13302346.396 -7875068.080 10 0 59173 59400.00000 0 -19367494.970 12582626.593 -10801405.556 10 0 59173 60300.00000 0 -18278871.213 11540583.447 -13517638.969 10 0 59173 61200.00000 0 -17071248.682 10172481.423 -15970909.428 10 0 59173 62100.00000 0 -15805195.267 8487409.100 -18113473.983 10 0 59173 63000.00000 0 -14540148.451 6507161.837 -19903639.564 10 0 59173 63900.00000 0 -13331882.764 4265593.211 -21306577.747 10 0 59173 64800.00000 0 -12230151.322 1807461.220 -22295004.387 10 0 59173 65700.00000 0 -11276600.911 -813183.443 -22849710.912 10 0 59173 66600.00000 0 -10503048.371 -3535000.445 -22959937.111 10 0 59173 67500.00000 0 -9930190.480 -6291671.234 -22623578.376 10 0 59173 68400.00000 0 -9566801.182 -9014423.025 -21847223.665 10 0 59173 69300.00000 0 -9409449.242 -11634660.543 -20646023.678 10 0 59173 70200.00000 0 -9442747.462 -14086596.374 -19043392.024 10 0 59173 71100.00000 0 -9640122.075 -16309770.833 -17070545.340 10 0 59173 72000.00000 0 -9965069.011 -18251356.788 -14765891.494 10 0 59173 72900.00000 0 -10372843.154 -19868154.007 -12174277.903 10 0 59173 73800.00000 0 -10812508.477 -21128190.595 -9346114.742 10 0 59173 74700.00000 0 -11229261.670 -22011865.485 -6336390.428 10 0 59173 75600.00000 0 -11566930.393 -22512585.343 -3203598.798 10 0 59173 76500.00000 0 -11770539.971 -22636870.485 -8599.210 10 0 59173 77400.00000 0 -11788839.521 -22403926.641 3186567.803 10 0 59173 78300.00000 0 -11576680.362 -21844701.958 6319885.959 10 0 59173 79200.00000 0 -11097145.939 -21000470.077 9330566.095 10 0 59173 80100.00000 0 -10323343.097 -19920999.954 12160222.873 10 0 59173 81000.00000 0 -9239778.973 -18662390.136 14754002.666 10 0 59173 81900.00000 0 -7843265.189 -17284658.993 17061641.073 10 0 59173 82800.00000 0 -6143311.001 -15849192.271 19038430.033 10 0 59173 83700.00000 0 -4161988.275 -14416154.827 20646076.610 10 0 59173 84600.00000 0 -1933273.103 -13041974.549 21853437.679 10 0 59173 85500.00000 0 498109.445 -11777003.127 22637117.113 10 0 59174 0.00000 0 3078290.521 -10663450.645 22981914.774 10 0 59174 900.00000 0 5746247.623 -9733679.684 22881119.195 10 0 59174 1800.00000 0 8436097.785 -9008928.688 22336638.667 10 0 59174 2700.00000 0 11079600.940 -8498518.706 21358968.125 10 0 59174 3600.00000 0 13608770.697 -8199574.517 19966992.266 10 0 59174 4500.00000 0 15958485.417 -8097272.843 18187627.935 10 0 59174 5400.00000 0 18068992.291 -8165606.618 16055311.899 10 0 59174 6300.00000 0 19888201.153 -8368633.561 13611342.837 10 0 59174 7200.00000 0 21373672.908 -8662156.837 10903089.315 10 0 59174 8100.00000 0 22494219.851 -8995767.267 7983078.100 10 0 59174 9000.00000 0 23231050.990 -9315161.131 4907979.732 10 0 59174 9900.00000 0 23578414.104 -9564635.645 1737510.621 10 0 59174 10800.00000 0 23543707.473 -9689656.321 -1466727.139 10 0 59174 11700.00000 0 23147056.256 -9639386.988 -4642445.583 10 0 59174 12600.00000 0 22420371.170 -9369074.520 -7727886.412 10 0 59174 13500.00000 0 21405929.055 -8842186.157 -10663027.980 10 0 59174 14400.00000 0 20154535.169 -8032207.553 -13390759.553 10 0 59174 15300.00000 0 18723344.962 -6924024.047 -15857999.089 10 0 59174 16200.00000 0 17173437.441 -5514825.260 -18016732.131 10 0 59174 17100.00000 0 15567242.730 -3814493.267 -19824951.086 10 0 59174 18000.00000 0 13965932.531 -1845456.583 -21247476.162 10 0 59174 18900.00000 0 12426883.536 357985.255 -22256641.900 10 0 59174 19800.00000 0 11001320.530 2750839.398 -22832835.953 10 0 59174 20700.00000 0 9732238.164 5279051.259 -22964879.758 10 0 59174 21600.00000 0 8652688.314 7881522.619 -22650243.966 10 0 59174 22500.00000 0 7784504.362 10492432.629 -21895094.696 10 0 59174 23400.00000 0 7137515.197 13043765.329 -20714169.952 10 0 59174 24300.00000 0 6709280.930 15467938.746 -19130488.840 10 0 59174 25200.00000 0 6485360.314 17700426.329 -17174899.394 10 0 59174 26100.00000 0 6440097.420 19682261.718 -14885473.953 10 0 59174 27000.00000 0 6537893.187 21362322.775 -12306764.032 10 0 59174 27900.00000 0 6734907.047 22699300.043 -9488929.298 10 0 59174 28800.00000 0 6981115.686 23663267.938 -6486757.938 10 0 59174 29700.00000 0 7222640.989 24236793.772 -3358597.724 10 0 59174 30600.00000 0 7404247.877 24415539.100 -165218.931 10 0 59174 31500.00000 0 7471905.753 24208329.218 3031368.299 10 0 59174 32400.00000 0 7375304.636 23636689.042 6169118.878 10 0 59174 33300.00000 0 7070219.232 22733865.927 9187156.264 10 0 59174 34200.00000 0 6520620.742 21543381.461 12026950.995 10 0 59174 35100.00000 0 5700447.019 20117173.828 14633451.486 10 0 59174 36000.00000 0 4594956.184 18513409.189 16956145.517 10 0 59174 36900.00000 0 3201606.399 16794054.102 18950032.262 10 0 59174 37800.00000 0 1530424.342 15022310.526 20576486.835 10 0 59174 38700.00000 0 -396153.821 13260020.319 21804001.442 10 0 59174 39600.00000 0 -2543963.223 11565147.021 22608789.620 10 0 59174 40500.00000 0 -4868285.624 9989439.227 22975242.720 10 0 59174 41400.00000 0 -7315471.743 8576372.007 22896230.397 10 0 59174 42300.00000 0 -9824944.526 7359451.314 22373239.636 10 0 59174 43200.00000 0 -12331501.691 6360951.131 21416349.676 10 0 59174 44100.00000 0 -14767823.434 5591135.287 20044042.995 10 0 59174 45000.00000 0 -17067082.389 5047995.873 18282855.379 10 0 59174 45900.00000 0 -19165548.549 4717518.790 16166870.998 10 0 59174 46800.00000 0 -21005081.610 4574465.090 13737071.229 10 0 59174 47700.00000 0 -22535407.310 4583635.254 11040548.784 10 0 59174 48600.00000 0 -23716083.175 4701563.304 8129601.497 10 0 59174 49500.00000 0 -24518071.222 4878569.324 5060722.475 10 0 59174 50400.00000 0 -24924851.343 5061083.603 1893505.769 10 0 59174 51300.00000 0 -24933028.403 5194143.951 -1310511.281 10 0 59174 52200.00000 0 -24552406.984 5223959.986 -4489046.474 10 0 59174 53100.00000 0 -23805530.127 5100435.056 -7580288.036 10 0 59174 54000.00000 0 -22726701.122 4779537.942 -10524102.598 10 0 59174 54900.00000 0 -21360529.303 4225422.640 -13263211.576 10 0 59174 55800.00000 0 -19760061.086 3412205.168 -15744312.182 10 0 59174 56700.00000 0 -17984575.013 2325320.740 -17919120.632 10 0 59174 57600.00000 0 -16097133.781 962402.509 -19745316.662 10 0 59174 58500.00000 0 -14161996.433 -666356.634 -21187370.594 10 0 59174 59400.00000 0 -12241999.618 -2538375.792 -22217236.709 10 0 59174 60300.00000 0 -10396017.878 -4619385.395 -22814899.485 10 0 59174 61200.00000 0 -8676609.414 -6864625.808 -22968762.164 10 0 59174 62100.00000 0 -7127945.685 -9220495.932 -22675870.387 10 0 59174 63000.00000 0 -5784110.945 -11626583.622 -21941966.756 10 0 59174 63900.00000 0 -4667842.236 -14017993.527 -20781375.556 10 0 59174 64800.00000 0 -3789761.515 -16327875.635 -19216720.064 10 0 59174 65700.00000 0 -3148130.860 -18490049.272 -17278478.110 10 0 59174 66600.00000 0 -2729139.654 -20441613.206 -15004384.710 10 0 59174 67500.00000 0 -2507710.178 -22125433.102 -12438693.527 10 0 59174 68400.00000 0 -2448786.181 -23492402.676 -9631311.674 10 0 59174 69300.00000 0 -2509048.724 -24503384.289 -6636824.996 10 0 59174 70200.00000 0 -2638985.550 -25130748.252 -3513433.058 10 0 59174 71100.00000 0 -2785225.399 -25359446.982 -321814.906 10 0 59174 72000.00000 0 -2893037.648 -25187579.676 2876051.895 10 0 59174 72900.00000 0 -2908890.799 -24626424.680 6018095.639 10 0 59174 73800.00000 0 -2782961.045 -23699939.030 9043354.641 10 0 59174 74700.00000 0 -2471484.497 -22443747.005 11893157.545 10 0 59174 75600.00000 0 -1938853.437 -20903660.807 14512257.036 10 0 59174 76500.00000 0 -1159367.914 -19133795.839 16849895.223 10 0 59174 77400.00000 0 -118568.667 -17194359.774 18860780.545 10 0 59174 78300.00000 0 1185905.043 -15149207.806 20505958.000 10 0 59174 79200.00000 0 2743969.274 -13063265.840 21753556.703 10 0 59174 80100.00000 0 4533276.153 -10999928.494 22579401.147 10 0 59174 81000.00000 0 6519914.992 -9018539.540 22967475.136 10 0 59174 81900.00000 0 8659605.816 -7172058.604 22910230.076 10 0 59174 82800.00000 0 10899336.884 -5505010.261 22408731.977 10 0 59174 83700.00000 0 13179379.618 -4051799.782 21472644.390 10 0 59174 84600.00000 0 15435598.599 -2835464.656 20120047.305 10 0 59174 85500.00000 0 17601961.882 -1866913.161 18377094.905 10 0 59175 0.00000 0 19613148.396 -1144681.033 16277518.016 10 0 59175 900.00000 0 21407144.622 -655216.020 13861979.489 10 0 59175 1800.00000 0 22927723.248 -373677.751 11177294.875 10 0 59175 2700.00000 0 24126699.578 -265219.799 8275531.375 10 0 59175 3600.00000 0 24965872.396 -286698.936 5213002.604 10 0 59175 4500.00000 0 25418566.580 -388740.019 2049177.909 10 0 59175 5400.00000 0 25470712.595 -518068.597 -1154472.740 10 0 59175 6300.00000 0 25121416.679 -620012.202 -4335675.701 10 0 59175 7200.00000 0 24382997.097 -641063.814 -7432568.662 10 0 59175 8100.00000 0 23280484.160 -531397.951 -10384909.463 10 0 59175 9000.00000 0 21850604.552 -247231.738 -13135254.508 10 0 59175 9900.00000 0 20140292.360 247070.273 -15630082.963 10 0 59175 10800.00000 0 18204789.231 977237.925 -17820844.192 10 0 59175 11700.00000 0 16105413.471 1957759.666 -19664907.523 10 0 59175 12600.00000 0 13907091.834 3191026.857 -21126395.417 10 0 59175 13500.00000 0 11675757.642 4666995.573 -22176883.682 10 0 59175 14400.00000 0 9475724.237 6363381.333 -22795955.143 10 0 59175 15300.00000 0 7367143.733 8246379.612 -22971596.090 10 0 59175 16200.00000 0 5403657.042 10271882.798 -22700428.056 10 0 59175 17100.00000 0 3630332.927 12387143.379 -21987770.679 10 0 59175 18000.00000 0 2081981.533 14532814.225 -20847534.669 10 0 59175 18900.00000 0 781911.873 16645281.062 -19301947.197 10 0 59175 19800.00000 0 -258816.042 18659189.898 -17381115.179 10 0 59175 20700.00000 0 -1041614.486 20510063.813 -15122435.153 10 0 59175 21600.00000 0 -1580059.023 22136899.824 -12569861.351 10 0 59175 22500.00000 0 -1899061.892 23484637.253 -9773046.338 10 0 59175 23400.00000 0 -2033564.187 24506394.340 -6786371.249 10 0 59175 24300.00000 0 -2026803.556 25165379.632 -3667884.743 10 0 59175 25200.00000 0 -1928231.940 25436398.312 -478171.664 10 0 59175 26100.00000 0 -1791172.533 25306890.700 2720826.156 10 0 59175 27000.00000 0 -1670315.973 24777459.893 5867013.663 10 0 59175 27900.00000 0 -1619162.417 23861866.978 8899347.302 10 0 59175 28800.00000 0 -1687518.090 22586494.604 11759017.050 10 0 59175 29700.00000 0 -1919152.446 20989301.944 14390582.927 10 0 59175 30600.00000 0 -2349715.037 19118315.142 16743044.261 10 0 59175 31500.00000 0 -3005000.029 17029716.624 18770821.381 10 0 59175 32400.00000 0 -3899631.628 14785613.009 20434631.509 10 0 59175 33300.00000 0 -5036225.984 12451574.340 21702242.690 10 0 59175 34200.00000 0 -6405065.214 10094046.639 22549092.013 10 0 59175 35100.00000 0 -7984297.955 7777744.559 22958756.979 10 0 59175 36000.00000 0 -9740659.085 5563131.498 22923271.527 10 0 59175 36900.00000 0 -11630679.736 3504090.832 22443280.972 10 0 59175 37800.00000 0 -13602338.512 1645883.838 21528032.930 10 0 59175 38700.00000 0 -15597086.560 23478.041 20195204.105 10 0 59175 39600.00000 0 -17552163.414 -1339685.371 18470565.742 10 0 59175 40500.00000 0 -19403108.349 -2432434.624 16387493.351 10 0 59175 41400.00000 0 -21086363.443 -3256090.602 13986329.171 10 0 59175 42300.00000 0 -22541860.317 -3824161.406 11313608.758 10 0 59175 43200.00000 0 -23715482.727 -4161521.452 8421165.688 10 0 59175 44100.00000 0 -24561301.816 -4303109.883 5365130.936 10 0 59175 45000.00000 0 -25043489.759 -4292203.404 2204845.888 10 0 59175 45900.00000 0 -25137830.802 -4178336.781 -998290.142 10 0 59175 46800.00000 0 -24832765.484 -4014959.317 -4182015.310 10 0 59175 47700.00000 0 -24129922.958 -3856927.058 -7284419.897 10 0 59175 48600.00000 0 -23044118.161 -3757937.703 -10245155.965 10 0 59175 49500.00000 0 -21602813.022 -3768017.815 -13006617.756 10 0 59175 50400.00000 0 -19845063.723 -3931169.835 -15515069.003 10 0 59175 51300.00000 0 -17819997.757 -4283279.684 -17721694.557 10 0 59175 52200.00000 0 -15584884.380 -4850374.678 -19583555.301 10 0 59175 53100.00000 0 -13202879.314 -5647306.550 -21064427.345 10 0 59175 54000.00000 0 -10740538.078 -6676916.310 -22135509.020 10 0 59175 54900.00000 0 -8265201.915 -7929717.190 -22775981.952 10 0 59175 55800.00000 0 -5842365.583 -9384109.958 -22973415.375 10 0 59175 56700.00000 0 -3533136.632 -11007122.323 -22724006.109 10 0 59175 57600.00000 0 -1391891.803 -12755642.108 -22032649.760 10 0 59175 58500.00000 0 535772.245 -14578092.905 -20912842.014 10 0 59175 59400.00000 0 2214709.272 -16416482.363 -19386412.166 10 0 59175 60300.00000 0 3621446.298 -18208737.528 -17483094.210 10 0 59175 61200.00000 0 4744909.142 -19891229.442 -15239944.014 10 0 59175 62100.00000 0 5586621.931 -21401381.263 -12700614.046 10 0 59175 63000.00000 0 6160373.946 -22680250.556 -9914499.903 10 0 59175 63900.00000 0 6491369.533 -23674977.391 -6935775.541 10 0 59175 64800.00000 0 6614898.637 -24340995.558 -3822336.228 10 0 59175 65700.00000 0 6574585.608 -24643914.133 -634670.131 10 0 59175 66600.00000 0 6420291.614 -24560990.546 2565319.082 10 0 59175 67500.00000 0 6205760.452 -24082133.541 5715515.390 10 0 59175 68400.00000 0 5986108.208 -23210394.214 8754795.662 10 0 59175 69300.00000 0 5815263.492 -21961924.871 11624213.384 10 0 59175 70200.00000 0 5743466.796 -20365407.731 14268137.954 10 0 59175 71100.00000 0 5814934.778 -18460977.568 16635327.760 10 0 59175 72000.00000 0 6065788.012 -16298683.443 18679916.648 10 0 59175 72900.00000 0 6522329.517 -13936553.586 20362295.407 10 0 59175 73800.00000 0 7199746.542 -11438343.654 21649872.053 10 0 59175 74700.00000 0 8101290.306 -8871061.552 22517696.975 10 0 59175 75600.00000 0 9217968.494 -6302370.792 22948941.734 10 0 59175 76500.00000 0 10528764.080 -3797979.181 22935222.843 10 0 59175 77400.00000 0 12001372.166 -1419120.097 22476764.661 10 0 59175 78300.00000 0 13593425.199 779770.346 21582398.332 10 0 59175 79200.00000 0 15254156.662 2753085.061 20269396.515 10 0 59175 80100.00000 0 16926435.029 4465703.293 18563146.548 10 0 59175 81000.00000 0 18549084.221 5894205.493 16496667.514 10 0 59175 81900.00000 0 20059394.699 7027596.003 14109979.595 10 0 59175 82800.00000 0 21395720.864 7867503.933 11449336.900 10 0 59175 83700.00000 0 22500056.379 8427854.313 8566337.676 10 0 59175 84600.00000 0 23320479.512 8734023.764 5516928.336 10 0 59175 85500.00000 0 23813365.343 8821516.421 2360320.178 10 0 59176 0.00000 0 23945271.331 8734216.359 -842160.332 10 0 59176 900.00000 0 23694415.584 8522290.756 -4028265.689 10 0 59176 1800.00000 0 23051685.637 8239832.658 -7136041.182 10 0 59176 2700.00000 0 22021132.197 7942344.344 -10105035.533 10 0 59176 3600.00000 0 20619927.884 7684167.992 -12877483.178 10 0 59176 4500.00000 0 18877790.340 7515973.822 -15399434.644 10 0 59176 5400.00000 0 16835893.733 7482412.853 -17621812.314 10 0 59176 6300.00000 0 14545313.473 7620034.665 -19501370.499 10 0 59176 7200.00000 0 12065068.992 7955559.159 -21001540.659 10 0 59176 8100.00000 0 9459846.205 8504576.279 -22093145.186 10 0 59176 9000.00000 0 6797494.630 9270729.362 -22754965.870 10 0 59176 9900.00000 0 4146403.585 10245417.281 -22974156.055 10 0 59176 10800.00000 0 1572866.649 11408028.502 -22746488.764 10 0 59176 11700.00000 0 -861456.117 12726697.736 -22076436.179 10 0 59176 12600.00000 0 -3101872.882 14159553.682 -20977079.209 10 0 59176 13500.00000 0 -5102695.185 15656405.749 -19469849.115 10 0 59176 14400.00000 0 -6828889.632 17160799.009 -17584106.380 10 0 59176 15300.00000 0 -8257278.401 18612351.154 -15356565.184 10 0 59176 16200.00000 0 -9377239.881 19949273.219 -12830574.813 10 0 59176 17100.00000 0 -10190881.774 21110968.116 -10055272.105 10 0 59176 18000.00000 0 -10712681.101 22040597.594 -7084621.715 10 0 59176 18900.00000 0 -10968608.077 22687509.612 -3976363.126 10 0 59176 19800.00000 0 -10994772.460 23009423.934 -790885.196 10 0 59176 20700.00000 0 -10835650.975 22974283.987 2409949.381 10 0 59176 21600.00000 0 -10541972.026 22561697.145 5564006.537 10 0 59176 22500.00000 0 -10168348.111 21763902.951 8610086.572 10 0 59176 23400.00000 0 -9770756.747 20586228.729 11489109.493 10 0 59176 24300.00000 0 -9403976.806 19047013.543 14145257.047 10 0 59176 25200.00000 0 -9119088.714 17177003.681 16527049.554 10 0 59176 26100.00000 0 -8961143.956 15018244.870 18588337.083 10 0 59176 27000.00000 0 -8967101.954 12622517.181 20289186.484 10 0 59176 27900.00000 0 -9164120.939 10049377.338 21596647.953 10 0 59176 28800.00000 0 -9568274.550 7363889.248 22485387.070 10 0 59176 29700.00000 0 -10183748.014 4634136.119 22938170.952 10 0 59176 30600.00000 0 -11002547.882 1928616.297 22946199.740 10 0 59176 31500.00000 0 -12004737.936 -686370.300 22509277.402 10 0 59176 32400.00000 0 -13159192.157 -3149238.087 21635818.649 10 0 59176 33300.00000 0 -14424834.208 -5405431.007 20342691.586 10 0 59176 34200.00000 0 -15752312.626 -7409441.983 18654898.576 10 0 59176 35100.00000 0 -17086042.755 -9126453.821 16605100.705 10 0 59176 36000.00000 0 -18366530.931 -10533534.126 14232994.047 10 0 59176 36900.00000 0 -19532884.257 -11620334.985 11584548.775 10 0 59176 37800.00000 0 -20525401.370 -12389268.846 8711124.993 10 0 59176 38700.00000 0 -21288135.418 -12855153.504 5668481.513 10 0 59176 39600.00000 0 -21771321.124 -13044341.388 2515696.340 10 0 59176 40500.00000 0 -21933563.386 -12993370.214 -685980.356 10 0 59176 41400.00000 0 -21743694.237 -12747192.221 -3874318.475 10 0 59176 42300.00000 0 -21182218.769 -12357057.176 -6987321.716 10 0 59176 43200.00000 0 -20242287.781 -11878139.211 -9964438.705 10 0 59176 44100.00000 0 -18930154.779 -11367008.582 -12747747.182 10 0 59176 45000.00000 0 -17265096.845 -10879056.082 -15283087.385 10 0 59176 45900.00000 0 -15278801.524 -10465979.968 -17521121.889 10 0 59176 46800.00000 0 -13014244.484 -10173442.521 -19418300.729 10 0 59176 47700.00000 0 -10524104.266 -10038996.124 -20937712.557 10 0 59176 48600.00000 0 -7868779.906 -10090367.185 -22049805.137 10 0 59176 49500.00000 0 -5114093.809 -10344170.931 -22732961.142 10 0 59176 50400.00000 0 -2328775.512 -10805111.770 -22973918.157 10 0 59176 51300.00000 0 418169.090 -11465703.221 -22768024.967 10 0 59176 52200.00000 0 3060093.857 -12306519.494 -22119329.384 10 0 59176 53100.00000 0 5535244.419 -13296968.195 -21040496.151 10 0 59176 54000.00000 0 7789081.316 -14396551.679 -19552556.748 10 0 59176 54900.00000 0 9776298.330 -15556563.952 -17684496.100 10 0 59176 55800.00000 0 11462452.779 -16722151.560 -15472684.397 10 0 59176 56700.00000 0 12825141.029 -17834651.580 -12960165.220 10 0 59176 57600.00000 0 13854671.548 -18834108.060 -10195813.939 10 0 59176 58500.00000 0 14554208.875 -19661860.697 -7233383.048 10 0 59176 59400.00000 0 14939384.214 -20263096.473 -4130453.264 10 0 59176 60300.00000 0 15037390.763 -20589256.533 -947311.111 10 0 59176 61200.00000 0 14885603.445 -20600196.702 2254224.710 10 0 59176 62100.00000 0 14529782.762 -20266010.528 5412005.026 10 0 59176 63000.00000 0 14021939.735 -19568438.000 8464756.333 10 0 59176 63900.00000 0 13417952.999 -18501800.605 11353267.698 10 0 59176 64800.00000 0 12775039.255 -17073423.364 14021535.456 10 0 59176 65700.00000 0 12149184.066 -15303525.951 16417843.762 10 0 59176 66600.00000 0 11592641.380 -13224587.208 18495760.427 10 0 59176 67500.00000 0 11151606.843 -10880209.172 20215029.491 10 0 59176 68400.00000 0 10864162.465 -8323527.356 21542344.054 10 0 59176 69300.00000 0 10758578.641 -5615232.691 22451985.199 10 0 59176 70200.00000 0 10852044.439 -2821286.335 22926315.521 10 0 59176 71100.00000 0 11149879.255 -10420.972 22956118.348 10 0 59176 72000.00000 0 11645258.896 2748468.955 22540776.487 10 0 59176 72900.00000 0 12319467.863 5388941.278 21688287.162 10 0 59176 73800.00000 0 13142667.796 7849517.385 20415112.623 10 0 59176 74700.00000 0 14075150.642 10075987.694 18745868.772 10 0 59176 75600.00000 0 15069024.877 12023416.717 16712857.051 10 0 59176 76500.00000 0 16070264.929 13657765.227 14355447.616 10 0 59176 77400.00000 0 17021038.589 14957062.560 11719324.821 10 0 59176 78300.00000 0 17862215.157 15912080.662 8855608.613 10 0 59176 79200.00000 0 18535949.048 16526481.991 5819868.043 10 0 59176 80100.00000 0 18988230.033 16816435.336 2671045.604 10 0 59176 81000.00000 0 19171292.034 16809715.844 -529687.036 10 0 59176 81900.00000 0 19045778.089 16544327.527 -3720119.606 10 0 59176 82800.00000 0 18582569.192 16066706.607 -6838216.435 10 0 59176 83700.00000 0 17764198.343 15429581.987 -9823328.209 10 0 59176 84600.00000 0 16585788.731 14689583.784 -12617377.998 10 0 59176 85500.00000 0 15055475.099 13904701.689 -15165997.596 99